Regional Weather Roundup
Issued by NWS Austin/San Antonio, TX

Home | Current Version | Previous Version | Text Only | Print | Product List | Glossary On
Versions: 1 2 3 4 5 6 7 8 9 10 11 12 13 14 15 16 17 18 19 20 21 22 23 24 25 26 27 28 29 30 31 32 33 34 35 36 37 38 39 40 41 42 43 44 45 46 47 48 49 50
000
ASUS44 KEWX 280811
RWREWX
SOUTH TEXAS REGIONAL WEATHER ROUNDUP
NATIONAL WEATHER SERVICE AUSTIN/SAN ANTONIO TX
300 AM CDT WED JUN 28 2017

NOTE: "FAIR" INDICATED FEW OR NO CLOUDS BELOW 12,000 FEET WITH NO
SIGNIFICANT WEATHER AND/OR OBSTRUCTIONS TO VISIBILITY.

* - THESE STATIONS ARE NOT NWS OR FAA STATIONS...AND ARE NOT SUBJECT
    TO NWS AND FAA QUALITY CONTROL.

TXZ171-172-183>190-280900-
TEXAS HILL COUNTRY AND EDWARDS PLATEAU

CITY           SKY/WX    TMP DP  RH WIND       PRES   REMARKS
JUNCTION       CLEAR     71  67  87 SE5       29.99F
*LLANO         CLEAR     70  68  94 CALM      30.01S
BURNET         MOCLDY    71  68  90 S5        30.00F
*HORSESHOE BAY PTCLDY    68  67  96 MISG      29.98S
*KERRVILLE     CLOUDY    69  68  96 SE3       29.99F
*FREDERICKSBRG CLOUDY    69  67  92 S8        30.00S
*ROCKSPRINGS   CLEAR     66  66 100 S5        30.03F
*BOERNE STAGE  MOCLDY    68  66  94 CALM      30.00S
*CASTROVILLE   CLEAR     69  68  98 CALM      29.97S
HONDO          CLEAR     69  68  96 N5        29.96F
*UVALDE        PTCLDY    68  67  97 CALM      29.96F
DEL RIO        PTCLDY    74  69  85 SE9       29.94F
LAUGHLIN AFB   MOCLDY    73  69  89 SE8       29.95F
CARRIZO SPRGS  CLEAR     72  70  94 CALM      29.93F
*EAGLE PASS      N/A    N/A N/A N/A MISG        N/A
$$

TXZ173-191>194-202-209-217>225-228-280900-
CENTRAL AND SOUTH CENTRAL TEXAS

CITY           SKY/WX    TMP DP  RH WIND       PRES   REMARKS
GEORGETOWN     CLEAR     72  66  83 CALM      29.96F
AUSTIN/BERGSTM PTCLDY    70  69  97 CALM      29.95F
AUSTIN/MABRY   CLEAR     72  70  93 CALM      29.96F
*AUSTIN/EXEC     N/A     72  72 100 CALM      29.97F
*LAGO VISTA    PTCLDY    72  71  95 CALM      29.98F
SAN MARCOS     CLEAR     70  68  94 NW5       29.96F
NEW BRAUNFELS  FOG       70  69  97 CALM      29.93F VSB 1
RANDOLPH AFB   PTCLDY    70  70 100 N3        29.95F
PT SAN ANTONIO CLEAR     72  69  92 NE5       29.93F
SAN ANTONIO    MOCLDY    72  69  90 CALM      29.96F
STINSON FIELD  CLEAR     73  69  87 N5        29.93F
*LA GRANGE     CLEAR     73  73  98 CALM      29.93S
*GIDDINGS      CLEAR     71  69  96 CALM      29.96S
*GONZALES      MOCLDY    74  74 100 CALM      29.92F
$$

TXZ163>164-176>182-195>201-210>213-226-227-235-280900-
SOUTHEAST TEXAS

CITY           SKY/WX    TMP DP  RH WIND       PRES   REMARKS
COLLEGE STN    CLEAR     70  70 100 E3        29.95F
*BRYAN         CLEAR     69  69 100 CALM      29.97F
*CALDWELL      NOT AVBL
*CROCKETT      CLEAR     70  68  94 CALM      30.00S
*BRENHAM       CLEAR     73  73  97 CALM      29.95F
HUNTSVILLE     CLEAR     72  69  90 CALM      29.96F
CONROE         CLEAR     71  70  96 CALM      29.95F
HOUSTON BUSH   PTCLDY    74  72  93 E6        29.94F
HOUSTON HOBBY  MOCLDY    78  73  84 E7        29.93F
*HOUSTON SW AP MOCLDY    75  72  92 E5        29.93F
PEARLAND       NOT AVBL
HOUSTON HOOKS  CLEAR     75  73  93 E5        29.94F
ELLINGTON FLD  RAIN      77  73  88 E5        29.95F
SUGAR LAND     PTCLDY    78  73  84 E6        29.93F
*HOUSTON EXEC  PTCLDY    73  72  94 NE5       29.95F
*CLEVELAND MUN MOCLDY    71  70  96 CALM      29.96F FOG
*WHARTON       CLEAR     73  71  93 NE5       29.93F
*COLUMBUS      FAIR      72  70  95 CALM      29.94F
*EAGLE LAKE    PTSUNNY   75  74  98 NE3       29.93F
$$

TXZ214>216-236>238-280900-
THE UPPER TEXAS COAST

CITY           SKY/WX    TMP DP  RH WIND       PRES   REMARKS
*ORANGE        CLEAR     73  73  98 NE3       29.98S
PORT ARTHUR    CLEAR    N/A N/A N/A MISG        N/A
GALVESTON      CLOUDY    78  74  87 E13       29.92F
ANGLETON       CLEAR     74  72  93 N5        29.92F
*BAY CITY      PTCLDY    75  74  98 NE3       29.92S
PALACIOS       PTCLDY    72  72 100 NE7       29.89F
$$

TXZ229>234-239>247-280900-
TEXAS COASTAL BEND AND RIO GRANDE PLAINS

CITY           SKY/WX    TMP DP  RH WIND       PRES   REMARKS
VICTORIA       PTCLDY    74  72  93 NE7       29.90F
*BEEVILLE      CLEAR    N/A N/A N/A NE3       29.90F
ROCKPORT       CLEAR     80  73  79 E6        29.87F
*PORT ARANSAS  PTCLDY    80  73  78 E3        29.86F
*PORT LAVACA   MOCLDY    76  76 100 CALM      29.89F
*INGLESIDE     CLEAR     79  74  85 MISG      29.87F
CORPUS CHRISTI MOCLDY    78  75  90 NW6       29.87F
CORPUS NAS     CLEAR     79  76  90 SE3       29.86F
*ROBSTOWN      PTCLDY    75  32  20 N3        29.88F
ALICE          PTCLDY    74  73  97 N6        29.88F
KINGSVILLE NAS PTCLDY    75  75 100 N6        29.87F
COTULLA        MOCLDY    72  70  93 CALM      29.92F
*FAITH RANCH   CLEAR     73  72  94 NE5       29.93F
LAREDO         CLEAR     75  70  84 E5        29.91F
$$

TXZ248>255-280900-
DEEP SOUTH TEXAS

CITY           SKY/WX    TMP DP  RH WIND       PRES   REMARKS
BROWNSVILLE    CLOUDY    76  75  97 CALM      29.85F
PORT ISABEL    CLOUDY    78  76  93 CALM      29.84F
*SOUTH PADRE   NOT AVBL
HARLINGEN      PTCLDY    75  75 100 N6        29.84F
*HEBBRONVILLE  CLOUDY    72  69  92 CALM      29.91F
MCALLEN        CLOUDY    81  74  79 NE6       29.86F
*WESLACO       PTCLDY    76  74  93 CALM      29.85F
FALFURRIAS     CLEAR     75  73  93 N3        29.87F
EDINBURG       CLOUDY    76  73  90 N3        29.87F
*ZAPATA        CLOUDY    77  71  81 CALM      29.89F
$$

TXZ213>215-236>238-242>244-246-247-251-254-255-280900-
CMAN STATIONS

STATION/POSITION TIME  TEMP    WIND        PRES    WAVE
                       AIR SEA DIR/SP/G            HT/PER
                 (UTC) (F)     (DEG/KT/KT) (MB)    (FT/S)
SABINE PASS      0748   81 85  120/ 14/ 17 1015.3
SEA RIM ST PARK  0800   80     110/ 12/ 15 1014.2
NORTH JETTY/GLS  0748      83  110/ 17/ 19 1013.0
EAGLE POINT      0748   81 82  130/ 14/ 17 1013.5
MORGANS POINT    0748   78 83   80/  5/  8 1013.5
MISSION/ARANSAS  0700          110/  9       N/A
PORT O`CONNOR    0748   81     100/ 11/ 12 1011.6
PORT ARANSAS     0800   81 84  120/  7/  8 1011.2
MALAQUITE BEACH  0748   82 85  100/  6/  7 1010.6
PORT ISABEL      0748   80 86              1010.9
$$




USA.gov is the U.S. government's official web portal to all federal, state and local government web resources and services.